EW6157 Weather Reports


time (UTC)temp
F
wind
direction
speed
knots
gust
knots
rain 1hr
in
rain 24hr
in
rain mn
in
humidity
%
barometer
mb
20240222120051 42 55 1.7 10.4 0.00 0.00 0.00 57 1010.9
20240222115607 42 352 4.3 10.4 0.00 0.00 0.00 55 1010.8
20240222115124 43 337 3.5 9.6 0.00 0.00 0.00 54 1010.8
20240222114529 43 13 4.3 9.6 0.00 0.00 0.00 53 1010.6
20240222114047 43 14 2.6 9.6 0.00 0.00 0.00 52 1010.7
20240222113622 43 349 3.5 9.6 0.00 0.00 0.00 50 1010.7
20240222113002 44 355 3.5 9.6 0.00 0.00 0.00 48 1010.7
20240222112535 44 26 3.5 12.2 0.00 0.00 0.00 47 1010.6
20240222112051 44 358 4.3 13.9 0.00 0.00 0.00 45 1010.7
20240222111607 45 9 4.3 15.6 0.00 0.00 0.00 43 1010.6
20240222111126 45 4 5.2 15.6 0.00 0.00 0.00 39 1010.5
20240222110523 46 351 3.5 11.3 0.00 0.00 0.00 35 1010.5
20240222110052 46 359 5.2 10.4 0.00 0.00 0.00 34 1010.5
20240222105607 46 353 2.6 9.6 0.00 0.00 0.00 34 1010.3
20240222105127 45 347 3.5 7.8 0.00 0.00 0.00 34 1010.2
20240222104526 45 347 1.7 8.7 0.00 0.00 0.00 35 1010.1
20240222104045 44 355 2.6 8.7 0.00 0.00 0.00 36 1010.1
20240222103620 44 347 1.7 6.1 0.00 0.00 0.00 36 1010.0
20240222103000 45 327 3.5 6.1 0.00 0.00 0.00 34 1009.2
20240222102532 45 319 2.6 6.1 0.00 0.00 0.00 34 1009.2
20240222102049 46 311 1.7 6.1 0.00 0.00 0.00 34 1009.1
20240222101601 46 329 2.6 6.1 0.00 0.00 0.00 34 1009.1
20240222101126 46 290 2.6 6.1 0.00 0.00 0.00 33 1009.0
20240222100047 44 304 3.5 6.1 0.00 0.00 0.00 36 1009.0
20240222095618 43 328 2.6 6.1 0.00 0.00 0.00 38 1009.1
20240222095133 43 316 1.7 5.2 0.00 0.00 0.00 37 1009.2
20240222094518 43 326 1.7 4.3 0.00 0.00 0.00 36 1009.2
20240222094032 43 323 1.7 4.3 0.00 0.00 0.00 35 1009.2
20240222093609 44 319 2.6 7.0 0.00 0.00 0.00 35 1009.2
20240222093125 45 325 1.7 7.0 0.00 0.00 0.00 34 1009.2
20240222092517 45 315 2.6 7.0 0.00 0.00 0.00 34 1009.2
20240222092032 45 335 3.5 7.0 0.00 0.00 0.00 34 1009.2
20240222091606 45 321 2.6 7.0 0.00 0.00 0.00 35 1009.2
20240222091124 44 293 1.7 5.2 0.00 0.00 0.00 36 1009.2
20240222090532 44 321 0.9 5.2 0.00 0.00 0.00 37 1009.0
20240222090047 43 313 1.7 4.3 0.00 0.00 0.00 37 1009.0
20240222085624 43 332 1.7 3.5 0.00 0.00 0.00 37 1008.9
20240222085002 43 300 0.9 3.5 0.00 0.00 0.00 37 1008.9
20240222084535 43 333 0.9 4.3 0.00 0.00 0.00 36 1009.0
20240222084055 43 311 1.7 4.3 0.00 0.00 0.00 36 1009.0
20240222083606 44 324 1.7 4.3 0.00 0.00 0.00 35 1009.0
20240222083123 44 330 1.7 5.2 0.00 0.00 0.00 35 1009.0
20240222082522 44 322 2.6 5.2 0.00 0.00 0.00 35 1009.0
20240222082039 44 317 0.0 6.1 0.00 0.00 0.00 35 1009.0
20240222081532 44 290 0.9 6.1 0.00 0.00 0.00 34 1008.9
20240222081046 44 310 0.9 3.5 0.00 0.00 0.00 34 1008.9
20240222080601 44 310 0.9 3.5 0.00 0.00 0.00 35 1008.8
20240222080119 43 316 0.0 3.5 0.00 0.00 0.00 36 1008.7
20240222075522 43 293 0.9 2.6 0.00 0.00 0.00 36 1008.7
20240222075042 43 309 0.0 0.0 0.00 0.00 0.00 36 1008.7
20240222074609 44 353 0.0 0.0 0.00 0.00 0.00 35 1008.8
20240222074126 45 335 0.0 0.0 0.00 0.00 0.00 34 1008.8
20240222073528 45 321 0.0 0.0 0.00 0.00 0.00 34 1008.6
20240222073040 46 351 0.0 1.7 0.00 0.00 0.00 33 1008.6
20240222072616 45 343 0.0 1.7 0.00 0.00 0.00 34 1008.6
20240222072133 46 294 0.0 3.5 0.00 0.00 0.00 34 1008.4
20240222071516 46 292 0.9 4.3 0.00 0.00 0.00 32 1008.4
20240222071037 46 326 1.7 4.3 0.00 0.00 0.00 31 1008.4
20240222070546 45 282 1.7 4.3 0.00 0.00 0.00 32 1008.4
20240222070106 45 328 0.9 2.6 0.00 0.00 0.00 32 1008.3
20240222065611 46 324 0.9 2.6 0.00 0.00 0.00 31 1008.5
20240222065123 46 324 0.9 2.6 0.00 0.00 0.00 31 1008.5
20240222064526 45 314 0.0 2.6 0.00 0.00 0.00 32 1008.4
20240222064037 44 295 0.0 1.7 0.00 0.00 0.00 32 1008.5
20240222063610 44 306 0.0 1.7 0.00 0.00 0.00 33 1008.5
20240222063131 44 300 0.0 2.6 0.00 0.00 0.00 33 1008.5
20240222062525 44 275 0.0 2.6 0.00 0.00 0.00 33 1008.5
20240222062042 45 321 0.9 3.5 0.00 0.00 0.00 33 1008.2
20240222061617 45 330 0.9 5.2 0.00 0.00 0.00 32 1008.2
20240222061134 45 349 1.7 5.2 0.00 0.00 0.00 31 1008.1
20240222060535 45 342 1.7 3.5 0.00 0.00 0.00 31 1007.9
20240222060051 45 304 0.9 4.3 0.00 0.00 0.00 30 1008.0
20240222055605 46 321 1.7 4.3 0.00 0.00 0.00 29 1008.1
20240222055123 47 335 1.7 3.5 0.00 0.00 0.00 28 1008.1
20240222054521 48 302 0.9 4.3 0.00 0.00 0.00 27 1008.1
20240222054046 48 344 0.9 5.2 0.00 0.00 0.00 28 1008.1
20240222053614 48 319 1.7 5.2 0.00 0.00 0.00 27 1008.1
20240222053133 48 326 1.7 5.2 0.00 0.00 0.00 26 1008.1
20240222052537 48 334 2.6 7.0 0.00 0.00 0.00 27 1008.1
20240222052050 48 351 2.6 7.0 0.00 0.00 0.00 27 1008.2
20240222051622 48 332 2.6 7.8 0.00 0.00 0.00 27 1008.2
20240222051001 47 333 4.3 7.8 0.00 0.00 0.00 27 1008.3
20240222050520 47 328 2.6 6.1 0.00 0.00 0.00 27 1008.3
20240222050038 47 328 2.6 6.1 0.00 0.00 0.00 27 1008.3
20240222045609 47 332 2.6 6.1 0.00 0.00 0.00 28 1008.4
20240222045124 47 323 1.7 5.2 0.00 0.00 0.00 28 1008.3
20240222044529 47 321 1.7 5.2 0.00 0.00 0.00 27 1008.3
20240222044043 48 326 1.7 5.2 0.00 0.00 0.00 27 1008.3
20240222043614 49 334 1.7 4.3 0.00 0.00 0.00 26 1008.2
20240222043002 49 297 1.7 4.3 0.00 0.00 0.00 25 1008.0
20240222042513 50 304 0.9 3.5 0.00 0.00 0.00 26 1007.9
20240222042034 50 303 0.9 4.3 0.00 0.00 0.00 25 1007.9
20240222041610 50 299 0.0 4.3 0.00 0.00 0.00 24 1007.9
20240222040522 50 309 1.7 3.5 0.00 0.00 0.00 24 1007.6
20240222040045 50 323 0.9 4.3 0.00 0.00 0.00 24 1007.6
20240222035621 50 322 1.7 4.3 0.00 0.00 0.00 25 1007.6
20240222035000 49 323 0.9 4.3 0.00 0.00 0.00 26 1007.7
20240222034521 49 333 0.9 4.3 0.00 0.00 0.00 25 1007.6
20240222034031 50 313 0.9 3.5 0.00 0.00 0.00 25 1007.5
20240222033607 51 333 1.7 4.3 0.00 0.00 0.00 25 1007.6
20240222033128 52 320 1.7 4.3 0.00 0.00 0.00 24 1007.4
20240222032527 53 313 1.7 4.3 0.00 0.00 0.00 24 1007.4
20240222032050 54 325 1.7 5.2 0.00 0.00 0.00 23 1007.3
20240222031556 54 304 1.7 6.1 0.00 0.00 0.00 22 1007.2
20240222031116 55 297 1.7 5.2 0.00 0.00 0.00 21 1007.1
20240222030516 55 326 2.6 6.1 0.00 0.00 0.00 21 1007.0
20240222030039 56 295 2.6 6.1 0.00 0.00 0.00 21 1006.9
20240222025609 57 305 2.6 6.1 0.00 0.00 0.00 20 1006.9
20240222025126 58 321 2.6 6.1 0.00 0.00 0.00 19 1006.8
20240222024525 60 348 3.5 8.7 0.00 0.00 0.00 18 1006.9
20240222024037 60 297 4.3 8.7 0.00 0.00 0.00 17 1006.8
20240222023616 60 319 3.5 6.1 0.00 0.00 0.00 18 1006.7
20240222023129 60 308 3.5 6.1 0.00 0.00 0.00 18 1006.6
20240222022533 60 308 2.6 6.1 0.00 0.00 0.00 18 1006.6
20240222022048 60 319 2.6 5.2 0.00 0.00 0.00 18 1006.7
20240222021622 59 300 0.9 7.0 0.00 0.00 0.00 18 1006.6
20240222021005 61 309 2.6 7.0 0.00 0.00 0.00 17 1006.6
20240222020519 63 345 2.6 7.8 0.00 0.00 0.00 15 1006.6
20240222020041 63 309 3.5 7.8 0.00 0.00 0.00 15 1006.4
20240222015610 63 315 3.5 7.0 0.00 0.00 0.00 15 1006.4
20240222015130 63 318 2.6 6.1 0.00 0.00 0.00 15 1006.2
20240222014534 64 295 2.6 8.7 0.00 0.00 0.00 14 1006.2
20240222014048 65 303 3.5 11.3 0.00 0.00 0.00 14 1006.2
20240222013620 65 314 5.2 11.3 0.00 0.00 0.00 14 1006.1
20240222013006 66 290 5.2 10.4 0.00 0.00 0.00 13 1006.0
20240222012518 66 297 4.3 8.7 0.00 0.00 0.00 13 1005.9
20240222012036 67 299 4.3 8.7 0.00 0.00 0.00 13 1005.8
20240222011629 67 271 4.3 8.7 0.00 0.00 0.00 13 1005.9
20240222011012 68 298 4.3 8.7 0.00 0.00 0.00 12 1005.9
20240222010612 69 308 5.2 8.7 0.00 0.00 0.00 12 1005.9
20240222010132 69 272 4.3 10.4 0.00 0.00 0.00 12 1005.8
20240222005526 70 297 5.2 11.3 0.00 0.00 0.00 11 1005.6
20240222005044 71 300 5.2 15.6 0.00 0.00 0.00 11 1005.6
20240222004618 71 316 7.0 15.6 0.00 0.00 0.00 11 1005.5
20240222004134 72 303 7.0 13.9 0.00 0.00 0.00 10 1005.5
20240222003536 73 303 8.7 14.8 0.00 0.00 0.00 10 1005.5
20240222003048 73 302 9.6 14.8 0.00 0.00 0.00 10 1005.3
20240222002602 74 307 8.7 14.8 0.00 0.00 0.00 10 1005.2
20240222002120 74 281 8.7 17.4 0.00 0.00 0.00 10 1005.1
20240222001516 75 227 8.7 17.4 0.00 0.00 0.00 10 1005.0
20240222001034 75 256 7.0 14.8 0.00 0.00 0.00 9 1004.8
20240222000610 76 251 7.0 15.6 0.00 0.00 0.00 9 1004.8
20240222000132 76 225 7.8 16.5 0.00 0.00 0.00 9 1004.7
20240221235533 77 295 8.7 15.6 0.00 0.00 0.00 8 1004.7
20240221235047 77 290 7.8 21.7 0.00 0.00 0.00 9 1004.7
20240221234619 78 300 7.8 21.7 0.00 0.00 0.00 8 1004.8
20240221234130 78 268 10.4 16.5 0.00 0.00 0.00 8 1004.7
20240221233532 78 248 7.0 13.9 0.00 0.00 0.00 8 1004.8
20240221233045 78 285 7.0 20.9 0.00 0.00 0.00 8 1004.9
20240221232622 79 284 8.7 20.9 0.00 0.00 0.00 8 1004.9
20240221232004 79 292 10.4 18.2 0.00 0.00 0.00 7 1004.9
20240221231519 79 262 9.6 18.2 0.00 0.00 0.00 7 1004.9
20240221231037 79 279 8.7 19.1 0.00 0.00 0.00 7 1005.0
20240221230608 79 266 7.8 21.7 0.00 0.00 0.00 7 1004.9
20240221230127 80 294 9.6 21.7 0.00 0.00 0.00 7 1004.9
20240221225521 80 227 11.3 20.9 0.00 0.00 0.00 7 1004.9
20240221225042 80 217 11.3 20.9 0.00 0.00 0.00 7 1004.7
20240221224614 80 250 8.7 20.9 0.00 0.00 0.00 7 1004.7
20240221224138 80 286 12.2 20.0 0.00 0.00 0.00 7 1004.7
20240221223526 81 214 8.7 17.4 0.00 0.00 0.00 7 1004.7
20240221223046 81 212 10.4 17.4 0.00 0.00 0.00 6 1004.9
20240221222620 81 283 10.4 17.4 0.00 0.00 0.00 7 1005.0
20240221222006 82 288 11.3 18.2 0.00 0.00 0.00 7 1005.1
20240221221534 81 297 10.4 20.0 0.00 0.00 0.00 6 1005.2
20240221221051 81 269 10.4 21.7 0.00 0.00 0.00 6 1005.4
20240221220628 81 197 12.2 21.7 0.00 0.00 0.00 6 1005.5
20240221220009 81 245 11.3 19.1 0.00 0.00 0.00 8 1005.4
20240221215540 82 234 7.8 17.4 0.00 0.00 0.00 9 1005.4
20240221215054 82 233 7.8 15.6 0.00 0.00 0.00 8 1005.6
20240221214608 82 218 11.3 17.4 0.00 0.00 0.00 8 1005.6
20240221214124 82 307 10.4 18.2 0.00 0.00 0.00 7 1005.6
20240221213518 82 207 9.6 21.7 0.00 0.00 0.00 7 1005.9
20240221213042 83 296 11.3 21.7 0.00 0.00 0.00 7 1006.2
20240221212612 82 281 8.7 21.7 0.00 0.00 0.00 9 1006.3
20240221212132 81 222 12.2 21.7 0.00 0.00 0.00 9 1006.1
20240221211528 81 187 12.2 21.7 0.00 0.00 0.00 9 1006.4
20240221211046 81 181 8.7 19.1 0.00 0.00 0.00 9 1006.5
20240221210538 81 181 7.8 21.7 0.00 0.00 0.00 8 1006.8
20240221210053 81 178 11.3 21.7 0.00 0.00 0.00 8 1006.9
20240221205600 81 194 13.9 20.9 0.00 0.00 0.00 8 1006.9
20240221205119 81 177 10.4 21.7 0.00 0.00 0.00 8 1007.1
20240221204516 81 188 12.2 21.7 0.00 0.00 0.00 8 1007.1
20240221204037 81 231 10.4 22.6 0.00 0.00 0.00 8 1007.1
20240221203528 81 204 13.0 22.6 0.00 0.00 0.00 8 1007.3
20240221203047 80 288 8.7 16.5 0.00 0.00 0.00 9 1007.5
20240221202620 80 290 7.8 17.4 0.00 0.00 0.00 10 1007.7
20240221202003 80 219 8.7 16.5 0.00 0.00 0.00 10 1007.9
20240221201521 79 281 7.8 15.6 0.00 0.00 0.00 10 1008.0
20240221201036 79 266 7.8 13.0 0.00 0.00 0.00 11 1008.2
20240221200614 79 271 7.0 13.0 0.00 0.00 0.00 11 1008.4
20240221200133 79 314 7.0 13.0 0.00 0.00 0.00 11 1008.5
20240221195528 78 274 7.8 17.4 0.00 0.00 0.00 11 1008.7
20240221195038 79 176 9.6 15.6 0.00 0.00 0.00 10 1008.9
20240221194610 78 287 6.1 13.0 0.00 0.00 0.00 11 1009.0
20240221194132 78 285 7.8 13.0 0.00 0.00 0.00 10 1009.3
20240221193527 79 274 5.2 11.3 0.00 0.00 0.00 10 1009.4
20240221193046 78 296 5.2 11.3 0.00 0.00 0.00 11 1009.7
20240221192620 77 299 6.1 13.0 0.00 0.00 0.00 11 1009.9
20240221192002 76 281 7.8 13.0 0.00 0.00 0.00 11 1010.2
20240221191544 76 236 4.3 10.4 0.00 0.00 0.00 11 1010.3
20240221191041 75 302 6.1 11.3 0.00 0.00 0.00 12 1010.5
20240221190615 75 279 7.0 11.3 0.00 0.00 0.00 11 1010.6
20240221190132 75 255 6.1 11.3 0.00 0.00 0.00 11 1010.9
20240221185512 74 268 6.1 11.3 0.00 0.00 0.00 11 1011.1
20240221185030 74 282 6.1 13.0 0.00 0.00 0.00 12 1011.3
20240221184608 73 264 5.2 13.0 0.00 0.00 0.00 12 1011.5
20240221184128 73 255 7.0 12.2 0.00 0.00 0.00 12 1011.7
20240221183525 73 233 8.7 13.9 0.00 0.00 0.00 12 1011.8
20240221183046 73 272 7.8 13.9 0.00 0.00 0.00 12 1011.9
20240221182617 74 276 7.0 13.9 0.00 0.00 0.00 11 1012.0
20240221182001 74 236 6.1 0.0 0.00 0.00 0.00 12 1012.1
20240221181544 74 262 6.1 9.6 0.00 0.00 0.00 12 1012.2
20240221181052 73 283 3.5 7.0 0.00 0.00 0.00 14 1012.2
20240221180542 72 312 4.3 7.0 0.00 0.00 0.00 13 1012.4
20240221180123 71 323 1.7 4.3 0.00 0.00 0.00 14 1012.5
20240221175603 70 328 0.9 4.3 0.00 0.00 0.00 16 1012.6
20240221175121 70 288 0.9 3.5 0.00 0.00 0.00 16 1012.8
20240221174524 69 266 0.9 4.3 0.00 0.00 0.00 18 1013.0
20240221174033 68 295 0.9 5.2 0.00 0.00 0.00 18 1013.2
20240221173604 67 297 1.7 5.2 0.00 0.00 0.00 18 1013.4
20240221173119 67 285 1.7 5.2 0.00 0.00 0.00 19 1013.6
20240221172526 66 295 2.6 5.2 0.00 0.00 0.00 19 1013.7
20240221172039 65 307 2.6 5.2 0.00 0.00 0.00 20 1013.8
20240221171617 65 276 2.6 5.2 0.00 0.00 0.00 20 1014.0
20240221171131 65 304 2.6 5.2 0.00 0.00 0.00 21 1014.2
20240221170531 63 289 2.6 5.2 0.00 0.00 0.00 22 1014.4
20240221170045 62 295 1.7 5.2 0.00 0.00 0.00 23 1014.5
20240221165535 61 321 2.6 5.2 0.00 0.00 0.00 23 1014.7
20240221165049 60 281 2.6 4.3 0.00 0.00 0.00 24 1014.8
20240221164556 60 310 1.7 6.1 0.00 0.00 0.00 25 1014.8
20240221164118 59 291 2.6 6.1 0.00 0.00 0.00 24 1014.9
20240221163517 59 333 2.6 5.2 0.00 0.00 0.00 26 1014.8
20240221163039 58 309 2.6 6.1 0.00 0.00 0.00 26 1014.8
20240221162610 58 305 3.5 6.1 0.00 0.00 0.00 26 1014.9
20240221162132 57 311 2.6 5.2 0.00 0.00 0.00 27 1015.0
20240221161524 56 290 1.7 7.8 0.00 0.00 0.00 28 1015.0
20240221161047 56 327 3.5 7.8 0.00 0.00 0.00 28 1015.1
20240221160623 55 300 3.5 7.0 0.00 0.00 0.00 28 1015.1
20240221160005 55 304 4.3 7.0 0.00 0.00 0.00 28 1015.1
20240221155514 55 291 3.5 6.1 0.00 0.00 0.00 29 1015.1
20240221155029 55 300 3.5 6.1 0.00 0.00 0.00 29 1015.2
20240221154608 55 309 3.5 6.1 0.00 0.00 0.00 30 1015.1
20240221154123 55 293 3.5 6.1 0.00 0.00 0.00 30 1015.1
20240221153631 55 295 2.6 5.2 0.00 0.00 0.00 30 1015.3
20240221153114 54 281 1.7 5.2 0.00 0.00 0.00 31 1015.3
20240221152506 53 282 1.7 5.2 0.00 0.00 0.00 32 1015.3
20240221152011 52 302 2.6 5.2 0.00 0.00 0.00 32 1015.3
20240221151535 51 278 1.7 5.2 0.00 0.00 0.00 32 1015.3
20240221151105 50 300 1.7 5.2 0.00 0.00 0.00 34 1015.3
20240221150506 49 290 0.9 5.2 0.00 0.00 0.00 35 1015.3
20240221150023 50 307 2.6 5.2 0.00 0.00 0.00 34 1015.3
20240221145539 49 264 1.7 4.3 0.00 0.00 0.00 36 1015.2
20240221145055 48 285 1.7 4.3 0.00 0.00 0.00 37 1015.1
20240221144614 47 311 1.7 4.3 0.00 0.00 0.00 38 1015.2
20240221144013 45 291 1.7 4.3 0.00 0.00 0.00 39 1015.1
20240221143536 44 311 0.9 3.5 0.00 0.00 0.00 40 1015.0
20240221143105 43 319 0.9 3.5 0.00 0.00 0.00 42 1014.9
20240221142505 41 321 1.7 3.5 0.00 0.00 0.00 44 1015.0
20240221142021 40 281 0.9 3.5 0.00 0.00 0.00 46 1015.1
20240221141539 39 276 0.9 3.5 0.00 0.00 0.00 47 1015.1
20240221141112 38 291 0.0 1.7 0.00 0.00 0.00 48 1015.1
20240221140627 38 287 0.0 0.9 0.00 0.00 0.00 49 1015.1
20240221140101 37 293 0.0 0.9 0.00 0.00 0.00 50 1015.1
20240221135502 36 294 0.0 0.9 0.00 0.00 0.00 51 1015.1
20240221135025 35 297 0.0 0.0 0.00 0.00 0.00 53 1015.1
20240221134540 34 296 0.0 0.0 0.00 0.00 0.00 53 1015.2
20240221134053 34 293 0.0 0.9 0.00 0.00 0.00 53 1015.1
20240221133613 34 300 0.0 0.0 0.00 0.00 0.00 53 1015.3
20240221133015 33 295 0.0 0.0 0.00 0.00 0.00 54 1015.3
20240221132528 33 295 0.0 0.0 0.00 0.00 0.00 54 1015.3
20240221132030 33 295 0.0 0.0 0.00 0.00 0.00 53 1015.3
20240221131613 33 295 0.0 0.0 0.00 0.00 0.00 53 1015.3
20240221131017 33 295 0.0 0.0 0.00 0.00 0.00 52 1015.2
20240221130530 34 295 0.0 0.9 0.00 0.00 0.00 52 1015.2
20240221130058 34 295 0.0 0.9 0.00 0.00 0.00 51 1015.2
20240221125615 35 297 0.0 0.0 0.00 0.00 0.00 50 1015.3
20240221125017 36 276 0.0 0.0 0.00 0.00 0.00 48 1015.3
20240221124528 36 283 0.0 0.0 0.00 0.00 0.00 47 1015.2
20240221124103 37 285 0.0 0.0 0.00 0.00 0.00 45 1015.1
20240221123621 38 300 0.0 0.9 0.00 0.00 0.00 45 1015.1
20240221123019 38 294 0.0 1.7 0.00 0.00 0.00 44 1015.1
20240221122540 39 311 0.0 2.6 0.00 0.00 0.00 43 1015.2
20240221122049 39 317 0.9 3.5 0.00 0.00 0.00 43 1015.2
20240221121611 39 309 0.9 3.5 0.00 0.00 0.00 43 1015.3
20240221121013 39 321 0.0 3.5 0.00 0.00 0.00 42 1015.4
20240221120532 40 315 0.9 3.5 0.00 0.00 0.00 42 1015.5